Theta_e
283 284 283 282 281 281 280 280 280 280 280 280 280 279 279 279 279 278 278 278 278 277 277 277 277 277 276 276 275 275 275 275 275 275 275 274 274 274 274 274 274 273 274 273 273 273 273 273 272 272 272 272 272 272 272 272 272 273 272 272 271 271 270 269 268 268 271 271 271 272 272 272 271 273 272 272 273 273 275 274 274 273 273 273 274
283 283 282 282 281 281 280 280 280 280 279 279 279 279 279 278 278 278 278 277 277 277 277 276 276 276 276 276 275 275 275 275 274 274 274 274 273 274 273 273 273 273 273 273 273 273 273 272 272 272 272 272 271 271 271 271 271 271 271 271 271 270 271 269 268 268 268 271 271 272 271 273 271 273 272 272 272 273 273 273 274 274 274 274 274
283 282 282 281 281 281 280 280 280 279 279 279 278 278 278 278 278 277 277 276 276 276 276 276 276 276 275 275 275 274 274 274 274 274 274 274 273 273 273 273 273 272 272 272 272 272 271 271 271 271 271 271 271 271 271 271 271 271 270 271 270 270 271 271 269 267 267 268 271 270 271 271 271 271 272 273 273 273 273 273 274 274 275 274 274
283 282 282 281 281 280 280 279 279 279 279 278 278 278 278 277 277 277 276 276 276 276 276 276 276 275 275 274 274 274 273 273 273 274 274 274 273 273 272 273 272 272 272 272 271 271 271 271 270 270 271 270 270 270 271 270 270 271 270 271 270 270 270 270 271 270 268 267 269 270 271 271 271 272 273 273 273 273 274 274 274 274 275 275 275
283 282 282 281 280 280 279 279 279 279 278 278 278 277 277 277 277 276 276 276 276 276 276 276 275 275 275 274 274 274 273 273 273 273 273 273 273 273 272 272 272 272 272 272 273 271 271 271 270 270 270 270 269 269 270 269 269 269 269 269 270 270 271 271 270 270 269 267 268 270 271 271 272 272 273 272 273 274 274 274 274 274 274 275 275
284 283 282 282 280 279 279 279 279 278 278 278 277 277 277 277 276 276 276 276 275 276 276 276 276 275 275 275 274 274 274 273 273 272 272 273 273 273 272 272 272 272 272 271 271 271 271 270 270 270 270 269 269 269 269 268 268 268 268 269 269 270 270 270 270 270 269 268 268 268 270 270 270 272 273 274 273 273 273 273 273 273 273 273 273
284 283 283 282 281 280 279 279 279 279 278 278 278 277 277 277 277 276 276 276 275 275 276 276 276 275 275 274 274 274 274 273 273 273 273 274 273 272 272 272 272 271 271 271 271 271 270 270 270 270 269 269 269 269 268 268 269 268 269 268 269 269 269 269 269 269 269 268 268 269 270 271 272 271 274 275 275 273 271 270 270 272 272 272 271
284 283 283 282 281 280 279 279 279 279 279 278 278 277 277 277 277 276 276 276 276 276 276 276 275 275 274 274 274 274 273 273 273 274 274 274 273 273 273 272 272 271 270 270 270 270 270 270 270 270 270 269 269 269 269 269 269 268 269 269 269 269 268 268 268 267 267 268 269 270 271 271 272 274 275 274 271 270 272 271 269 269 270 271 271
283 283 283 282 282 281 280 279 279 279 278 278 277 277 277 277 277 277 277 277 277 276 276 276 275 274 274 274 273 273 273 273 274 274 274 274 274 273 273 272 271 271 270 270 270 270 269 270 270 269 271 273 275 274 273 274 270 267 268 269 268 268 267 265 265 266 266 268 270 271 271 271 272 272 271 270 269 269 271 271 269 269 269 269 269
283 283 282 282 282 281 281 280 279 278 278 278 278 278 277 277 277 277 277 277 276 276 275 275 275 274 273 273 273 273 273 273 275 277 276 274 274 273 273 272 271 271 270 270 269 269 269 269 270 274 275 275 276 277 277 277 276 273 270 269 267 267 264 263 265 266 268 269 270 271 271 271 272 271 270 270 271 271 270 269 268 268 268 268 269
284 283 283 283 282 281 280 279 279 278 278 278 278 278 277 277 277 277 276 276 275 275 275 274 274 274 273 273 272 272 272 273 277 279 279 278 274 273 272 271 271 271 271 270 269 269 269 269 269 273 274 275 273 275 276 276 276 277 277 276 274 271 269 269 269 270 270 270 272 272 272 271 271 271 270 271 271 270 269 269 268 267 266 265 264
284 283 283 282 282 281 280 280 279 279 278 278 278 278 277 277 276 276 275 275 275 275 274 274 274 274 273 273 273 272 272 275 279 280 281 280 277 273 272 271 271 271 271 270 270 269 269 269 268 269 269 269 268 269 273 275 275 276 276 276 276 277 277 273 271 271 272 271 271 272 271 270 270 270 270 270 269 269 269 269 268 267 266 265 265
284 283 283 282 281 281 280 279 279 279 278 278 278 277 277 277 276 275 275 275 275 274 275 274 273 273 273 273 272 273 272 277 280 282 281 281 279 275 273 272 271 271 272 271 269 269 269 269 268 269 269 273 271 269 268 268 273 275 275 276 276 277 277 278 278 276 275 273 272 270 271 270 270 270 270 270 271 269 268 267 267 267 267 265 265
284 283 283 282 281 281 280 279 279 279 278 278 277 277 276 276 276 276 275 275 275 275 274 274 274 273 273 273 273 273 272 277 281 282 282 282 281 277 272 272 272 272 272 271 270 269 270 269 268 268 268 269 269 268 268 267 267 267 268 268 268 272 276 277 277 276 276 274 273 270 272 272 270 270 270 272 270 268 267 266 267 266 265 264 265
283 283 282 282 281 281 280 280 279 279 278 278 277 277 276 276 276 276 275 275 274 274 274 274 274 273 273 273 273 272 272 277 281 283 283 283 282 278 273 273 272 272 271 271 270 270 270 270 269 268 268 268 268 268 267 267 265 265 264 265 267 268 271 272 272 273 274 274 273 273 272 272 271 271 272 272 271 270 269 268 266 265 264 264 263
283 283 282 282 281 281 280 280 279 278 278 277 277 277 276 276 276 275 275 275 275 275 275 274 274 273 273 273 273 272 272 278 281 283 284 284 283 276 274 273 273 272 271 271 271 271 270 270 269 268 267 267 270 274 272 269 267 264 264 266 268 271 273 275 276 277 276 275 274 273 272 273 274 273 273 273 272 271 270 267 265 261 260 260 260
282 282 282 282 281 281 281 280 279 278 278 277 277 277 276 276 276 276 275 275 275 274 274 274 274 274 273 273 273 273 273 277 280 283 284 285 283 277 275 274 273 272 271 272 272 271 271 270 269 267 267 267 271 275 276 275 271 268 267 268 271 272 273 274 276 276 276 276 276 276 275 275 275 275 274 274 272 272 267 262 259 260 260 260 260
283 282 282 281 281 281 280 280 279 278 278 277 277 277 277 277 276 276 275 275 275 275 275 274 274 274 273 273 273 273 273 275 279 282 284 285 284 277 275 274 273 272 271 272 271 271 270 271 270 268 268 267 272 275 277 276 273 271 269 271 272 271 271 272 270 271 274 274 273 272 272 272 272 272 271 271 272 271 262 258 259 261 261 261 259
282 282 282 282 281 280 280 280 279 278 278 278 278 277 277 277 277 276 276 276 276 275 275 274 274 274 274 274 275 274 273 274 278 281 283 284 283 278 276 274 273 272 271 270 270 269 268 270 272 271 269 269 274 275 277 276 272 272 272 272 271 270 270 271 269 265 264 264 266 266 265 266 265 264 264 269 270 268 265 263 261 260 260 261 261
284 283 283 282 281 280 280 280 279 279 278 278 278 278 278 277 277 276 276 276 276 275 275 274 274 274 274 273 273 273 272 271 274 280 282 284 284 277 275 273 273 273 271 269 268 268 268 267 270 275 276 275 275 276 277 278 274 274 274 272 271 269 270 268 267 266 265 267 266 264 263 262 262 263 262 263 264 264 266 266 263 260 261 261 261
284 283 283 282 281 280 280 280 279 279 279 278 278 278 278 278 277 276 275 275 275 275 274 274 274 274 273 272 271 271 271 270 271 278 281 283 284 280 274 274 274 273 271 269 268 267 267 267 267 272 276 277 277 278 278 278 278 276 274 271 272 272 271 267 269 271 265 264 262 259 259 257 258 259 260 262 262 263 263 265 265 264 262 260 260
284 283 282 282 281 280 280 280 280 280 279 279 278 278 278 278 277 276 276 275 275 274 274 273 273 272 270 269 269 269 270 272 268 274 279 282 283 283 276 274 273 271 270 268 268 267 267 267 267 270 274 276 278 278 279 279 279 276 273 276 276 277 270 268 266 263 260 258 256 256 254 254 255 256 257 258 260 261 263 263 265 265 265 264 262
283 283 282 282 281 280 280 280 280 280 279 279 278 277 277 276 276 275 274 274 273 273 272 271 270 270 269 268 267 267 267 268 273 269 275 280 283 284 282 277 278 272 269 268 268 267 267 267 268 271 274 275 277 278 278 279 278 277 277 278 277 277 271 264 262 257 254 254 255 256 257 254 253 256 257 258 260 262 263 263 264 264 264 264 265
283 283 282 282 281 280 280 280 279 279 278 278 277 277 275 275 273 273 273 272 271 271 270 269 269 269 269 269 267 266 266 265 270 273 272 277 281 283 284 282 279 273 270 269 268 267 267 267 268 272 274 275 277 278 278 278 277 278 278 278 278 273 263 261 258 256 256 256 255 255 257 256 255 256 257 258 260 261 262 263 263 263 263 264 264
282 282 281 281 280 280 279 279 278 278 277 277 276 276 273 272 272 270 270 271 270 270 270 269 269 269 269 269 269 268 266 265 264 269 274 275 278 281 282 283 282 280 274 270 269 268 270 272 273 274 275 276 277 277 277 278 279 279 278 278 274 265 262 261 259 256 255 256 257 257 256 257 258 259 260 261 261 261 260 259 260 260 261 261 261
281 280 280 279 279 278 277 277 277 276 276 276 276 276 274 272 273 271 270 271 271 271 271 269 269 268 268 269 269 269 266 265 265 265 268 272 274 277 280 282 282 281 279 273 273 273 274 275 275 275 275 275 274 274 274 274 277 277 277 275 265 263 261 260 257 257 258 256 256 257 258 256 257 259 260 260 257 256 256 256 257 258 256 257 258
279 278 278 277 277 277 276 276 275 274 274 274 275 274 273 272 272 270 270 270 270 270 270 269 268 268 268 269 269 267 266 265 265 264 263 265 267 270 273 276 280 281 280 277 275 274 274 274 274 275 275 276 276 275 274 274 274 273 268 265 262 262 260 260 259 258 257 256 256 256 256 256 256 256 255 255 254 255 256 256 255 256 257 257 256
278 277 277 277 276 276 276 272 274 274 273 273 273 272 271 272 272 271 270 270 270 269 269 269 269 269 269 269 269 267 267 266 266 265 264 263 264 266 268 270 272 275 276 277 276 274 274 275 276 274 274 273 273 270 269 267 265 264 263 261 260 259 261 263 262 257 257 257 256 255 254 253 252 253 253 253 253 254 255 255 255 257 257 257 256
276 275 275 275 274 274 275 273 274 273 272 271 272 273 273 271 272 272 272 272 272 272 270 270 270 271 270 270 269 268 268 268 268 271 267 269 265 264 265 267 269 271 275 278 272 272 273 273 272 272 271 270 267 266 265 263 262 260 260 258 257 257 258 257 258 258 258 255 256 255 255 252 253 253 253 254 254 254 255 255 257 256 258 256 255
274 274 274 274 272 272 272 271 271 271 271 271 270 269 270 274 273 272 271 273 276 277 276 271 271 269 269 270 270 270 270 270 274 275 275 274 274 274 272 272 273 271 274 278 276 272 271 270 271 270 269 268 267 266 265 264 263 261 258 261 258 255 255 256 256 257 254 254 254 253 254 253 254 253 253 254 255 255 257 260 257 256 255 256 256
273 271 271 272 271 271 271 270 269 269 269 269 268 269 266 268 276 277 276 275 276 277 278 278 278 276 271 269 270 276 276 277 277 276 277 277 277 276 276 276 276 276 276 274 275 273 271 270 270 270 269 268 268 267 266 265 264 263 262 259 259 258 260 257 257 254 254 254 254 253 253 253 255 254 254 255 255 256 256 256 255 254 254 255 255
273 271 270 267 269 268 267 268 267 267 266 265 267 267 268 268 268 274 277 277 277 277 277 278 279 279 279 276 270 265 273 277 278 278 277 277 278 278 278 278 278 277 277 277 272 272 272 270 270 269 269 268 268 268 267 266 266 264 263 260 258 258 258 258 258 256 255 254 254 254 253 253 254 254 255 256 257 257 255 255 254 254 255 253 254
270 267 267 267 266 267 267 266 266 267 266 265 264 265 266 266 267 266 267 276 277 278 278 278 278 278 279 279 280 276 273 274 276 277 278 278 278 278 279 279 279 279 278 274 271 270 271 270 269 269 268 268 268 268 267 267 266 265 264 263 262 259 258 259 261 257 256 256 253 254 253 253 253 254 256 256 256 254 254 254 253 253 253 253 254
268 268 268 267 267 266 266 266 266 265 265 264 265 264 265 265 266 264 262 262 265 272 277 279 279 279 279 279 279 279 280 279 278 277 278 278 279 279 279 277 279 280 278 272 272 270 270 269 269 268 268 268 267 267 266 266 265 265 263 262 263 261 259 257 258 257 255 256 257 255 254 253 253 253 252 252 253 253 253 253 253 252 252 253 254
264 265 266 266 266 266 265 265 264 263 263 264 264 263 264 262 264 263 264 265 266 266 264 268 274 278 277 278 279 280 280 280 280 280 279 278 278 279 279 276 274 275 276 275 272 271 269 269 268 268 268 267 267 266 266 266 264 263 263 262 260 260 258 256 256 256 255 254 254 253 253 253 251 252 254 253 252 251 251 251 251 252 252 253 254
265 265 265 265 264 264 264 264 264 264 264 263 263 263 261 262 263 263 263 264 264 265 265 265 265 270 275 277 278 279 279 279 279 280 280 280 279 278 274 273 273 273 273 274 273 271 270 269 268 268 268 267 267 266 266 265 264 263 262 261 260 258 257 256 255 255 254 254 253 253 253 252 252 252 251 252 252 252 252 252 252 252 254 254 254
265 264 264 263 263 264 262 262 263 263 266 262 263 261 261 262 261 261 261 262 262 262 263 260 259 262 267 267 271 275 278 279 279 279 279 279 280 277 274 274 273 273 272 272 272 272 270 269 268 268 268 268 267 266 265 264 264 262 262 261 259 258 257 256 255 255 254 253 253 252 251 252 252 250 250 251 252 251 251 252 252 254 255 256 257
265 265 264 262 263 262 261 262 261 265 263 262 261 262 261 260 260 261 261 261 261 261 261 260 263 262 262 262 268 269 270 274 277 277 278 278 277 275 274 274 273 272 271 271 271 271 271 270 268 268 267 267 266 265 264 263 262 261 259 258 257 257 259 258 258 255 254 253 252 251 251 251 251 249 251 251 252 251 252 252 251 251 253 254 254
261 265 266 267 266 264 262 261 261 261 260 261 260 260 260 260 259 258 259 258 258 260 259 258 259 260 261 259 259 264 268 268 269 270 273 274 275 274 274 273 273 272 272 271 271 269 269 267 266 266 265 265 264 263 262 262 261 259 259 257 256 255 257 256 255 255 254 253 252 251 250 251 249 249 250 250 251 251 251 252 251 251 251 252 252
262 262 265 268 265 265 261 261 260 260 260 259 258 258 258 258 259 259 257 257 259 259 258 259 260 259 258 257 259 260 264 266 268 269 271 272 273 273 273 273 273 272 272 271 270 269 268 268 266 265 264 263 263 262 261 261 260 259 257 256 256 255 254 255 255 255 254 253 252 250 250 250 250 249 248 250 251 251 250 251 251 252 252 252 253
260 260 263 266 264 262 260 259 259 259 258 259 258 258 259 259 258 258 256 258 258 257 258 258 259 256 258 263 267 268 264 264 265 267 269 270 271 272 272 272 272 272 271 270 269 269 269 268 266 265 264 263 262 261 260 259 258 257 256 255 255 255 255 254 254 253 253 252 250 250 250 250 250 250 250 251 253 253 252 252 252 252 253 253 252
258 258 261 261 263 259 258 258 257 259 257 257 256 257 257 257 256 256 257 257 257 257 258 257 257 255 260 265 266 269 267 265 265 266 266 268 269 269 268 267 266 267 268 269 268 268 267 266 265 264 263 262 261 260 259 258 257 256 256 255 255 254 254 253 253 253 251 251 250 250 249 250 250 251 252 254 251 251 251 250 251 251 250 251 251
257 257 256 257 257 257 257 256 255 254 254 255 256 257 257 256 255 256 256 256 256 256 256 257 256 254 257 264 265 267 266 266 266 266 266 266 266 266 266 266 265 264 264 263 263 264 264 263 263 262 262 261 261 260 258 258 257 257 256 255 254 254 253 253 252 252 250 249 250 251 251 251 253 251 249 249 250 250 249 250 249 249 250 250 250
256 256 255 256 255 254 254 253 254 255 254 256 256 255 255 255 255 254 254 254 255 255 256 255 255 254 254 257 261 261 260 262 264 264 265 265 265 265 265 263 261 261 260 260 260 260 261 261 261 260 259 259 259 259 259 258 257 256 255 254 253 253 253 253 253 252 252 251 250 251 251 250 250 249 250 251 248 249 249 248 249 249 249 248 249
254 254 254 253 253 252 252 253 253 253 255 254 253 253 255 253 253 253 254 253 254 254 254 254 254 254 255 253 254 256 258 259 261 262 263 264 264 264 263 261 261 260 259 258 258 258 258 259 259 258 258 257 257 256 256 255 254 255 254 254 253 253 253 253 253 252 252 251 251 251 250 250 248 249 249 249 249 247 249 249 248 251 250 249 248
253 253 253 253 253 253 252 250 253 251 252 251 251 251 251 252 251 252 253 253 254 253 253 253 253 254 254 254 254 256 257 256 256 258 260 261 261 261 261 260 260 259 259 258 257 256 256 257 257 257 257 257 256 255 254 253 253 253 253 253 254 254 255 253 251 251 250 251 251 250 249 248 248 249 250 249 248 248 248 248 247 249 249 249 249
252 252 253 252 252 253 252 252 250 250 249 251 250 251 250 250 250 252 254 254 253 254 253 252 252 252 252 252 253 254 254 254 254 255 256 258 259 259 258 258 257 257 256 255 255 255 255 255 255 256 256 256 255 255 254 253 252 252 252 252 252 252 252 250 250 250 250 250 250 246 249 249 250 248 251 251 249 249 249 249 249 249 249 249 249
251 251 251 252 251 251 250 250 251 255 251 251 251 251 252 251 251 252 251 251 252 252 252 251 251 251 253 252 253 253 253 253 253 254 254 255 256 257 256 256 256 256 255 255 255 255 255 255 255 255 254 254 254 254 254 253 251 251 250 250 250 250 251 252 249 248 248 247 247 247 248 249 248 248 249 249 249 248 249 249 249 249 249 249 250
250 251 251 251 251 251 250 251 252 250 250 250 251 251 251 251 251 250 251 251 251 251 250 251 250 250 251 251 252 252 252 253 251 251 252 253 254 254 255 255 255 255 255 255 255 254 254 253 253 253 253 253 253 253 252 252 252 251 251 249 250 252 252 252 251 249 250 249 247 247 246 247 247 248 248 248 249 248 249 249 248 249 249 250 250
250 251 251 251 251 250 250 249 248 247 249 249 248 249 250 251 250 250 250 250 250 250 249 250 251 250 251 251 252 251 251 251 250 251 251 252 253 253 254 254 254 254 253 254 254 253 252 252 251 251 251 251 251 251 251 251 251 251 249 249 252 253 253 253 253 252 251 247 248 247 247 247 247 247 247 248 248 248 248 249 249 249 249 249 249
252 251 250 250 249 249 248 246 247 246 247 247 247 248 249 249 248 249 250 250 250 250 250 249 248 250 251 250 251 251 251 251 252 252 253 253 253 253 253 253 253 253 253 253 253 252 252 251 251 250 250 250 250 250 250 249 248 248 250 253 253 254 254 253 252 253 253 251 246 247 247 247 247 247 247 247 247 247 249 249 249 249 249 249 250
Wind_Speed
11 11 10 9 10 11 11 9 9 8 8 8 8 8 7 7 7 6 6 6 7 7 6 6 5 5 6 6 5 5 5 6 5 6 7 8 7 8 8 8 9 7 7 7 5 6 7 8 6 5 5 6 5 5 4 4 3 4 4 5 5 3 3 1 4 9 5 3 1 4 4 5 5 4 7 8 7 6 7 6 7 7 8 8 9
10 10 9 10 12 11 10 9 9 8 9 8 8 8 8 8 7 7 7 6 6 6 5 5 5 6 7 6 5 5 5 6 6 6 8 9 7 5 7 8 8 8 7 7 6 5 6 8 6 5 5 6 5 4 4 4 3 4 3 5 3 2 0 3 3 4 8 1 4 2 3 5 7 4 7 10 10 9 10 9 6 6 6 7 8
10 10 10 10 11 10 10 9 9 10 10 8 8 8 7 7 7 9 8 7 6 5 6 6 7 7 7 6 6 5 5 5 4 6 7 9 9 7 6 8 9 9 8 7 7 6 6 6 6 5 5 5 4 4 4 3 3 4 2 2 2 1 2 2 1 4 6 8 1 5 6 5 6 8 9 8 8 8 10 9 9 7 5 6 7
10 10 10 10 10 10 10 9 11 10 11 8 9 8 7 7 7 7 7 7 8 6 6 7 8 8 7 6 5 6 5 5 5 5 7 8 8 9 7 6 6 7 9 8 7 7 7 7 6 6 6 6 5 5 4 4 4 3 2 1 2 2 2 2 3 3 3 8 5 6 7 8 7 7 7 6 8 9 8 9 7 7 7 7 8
11 10 10 12 10 11 11 10 11 11 10 8 9 8 8 8 7 8 8 8 7 8 7 7 8 8 8 7 7 6 7 6 7 6 5 4 6 7 7 6 6 7 7 7 7 7 7 7 7 6 6 7 5 5 4 4 3 3 2 1 2 2 2 3 3 2 4 7 9 5 5 6 7 6 7 10 11 9 8 6 7 8 7 8 9
12 12 11 12 11 12 11 10 11 11 10 9 10 9 9 8 8 7 8 10 8 7 9 7 8 8 7 6 5 4 3 3 6 5 5 5 6 6 6 6 6 7 7 6 6 5 6 7 7 7 6 7 6 4 4 4 3 3 2 1 2 2 3 3 2 2 4 5 6 9 6 8 9 6 6 7 11 12 12 11 8 6 7 9 10
11 12 12 12 11 11 11 11 10 10 10 9 8 8 9 8 8 9 8 9 9 9 8 9 7 8 7 6 5 3 4 5 6 6 7 6 6 6 6 6 6 6 5 5 5 4 5 6 6 6 6 6 6 6 5 4 4 2 2 3 2 3 3 2 2 2 3 5 5 5 8 5 6 11 9 7 8 8 11 12 13 12 10 9 12
11 11 11 11 12 12 10 9 9 10 9 8 9 8 8 8 8 7 8 9 8 9 10 9 8 7 7 7 5 4 5 5 6 7 6 7 6 6 7 7 7 6 5 4 4 4 5 5 5 5 6 6 6 5 5 5 4 3 2 3 3 3 3 2 1 3 4 5 6 7 6 9 8 6 7 7 9 7 6 10 13 14 14 13 10
11 11 11 12 12 10 9 8 7 9 9 9 9 9 9 8 8 8 8 7 6 6 6 7 8 8 7 6 6 4 3 4 6 7 7 7 7 7 6 7 7 7 6 5 4 4 4 4 4 4 5 7 10 7 7 6 5 3 3 4 4 4 3 1 1 3 4 4 6 6 7 6 7 10 11 9 9 11 12 11 12 11 12 13 10
12 11 12 11 9 9 9 8 8 8 9 10 10 9 9 9 9 9 8 7 7 7 6 7 7 8 9 7 5 6 5 5 6 10 8 6 5 4 4 5 6 6 7 6 5 4 4 3 4 8 9 9 8 8 7 6 7 7 5 5 4 4 3 3 4 4 4 5 5 6 6 5 8 10 11 10 10 11 12 12 12 12 12 13 9
12 12 12 10 10 10 10 10 10 11 10 10 9 10 10 8 8 7 7 7 8 8 7 8 7 7 8 8 8 7 5 5 11 12 12 11 6 4 6 6 5 6 6 7 6 5 4 3 2 5 6 6 4 7 6 6 6 7 9 9 8 7 4 4 5 4 3 4 5 5 5 7 9 10 10 10 10 11 11 11 11 11 10 12 14
12 12 12 12 12 12 11 11 11 11 10 10 9 8 8 8 8 8 8 9 7 7 8 8 8 7 7 7 7 6 6 9 13 13 13 13 9 5 4 4 6 5 5 5 5 5 5 3 3 2 2 3 3 1 3 6 7 7 8 7 7 8 8 7 5 4 3 4 3 3 4 6 9 9 9 9 11 12 10 9 9 10 11 11 11
11 11 11 12 12 12 11 11 11 9 9 9 8 8 9 8 8 9 10 8 8 9 9 9 8 7 8 9 7 7 7 11 13 14 13 13 13 9 4 4 4 5 6 5 5 5 4 4 3 3 3 6 4 3 3 2 5 8 8 8 7 8 7 8 8 5 4 4 2 3 4 6 9 9 7 9 12 12 11 9 9 9 8 10 12
11 10 10 10 11 11 11 11 10 10 9 9 10 10 10 11 9 8 8 8 8 8 7 8 7 8 9 9 8 7 7 10 14 14 14 15 15 11 5 6 4 5 5 5 5 5 5 5 5 5 4 3 3 4 3 4 4 3 3 2 3 6 7 7 7 8 8 4 3 4 4 1 5 6 6 9 11 9 8 9 9 6 6 8 11
10 10 10 9 9 9 11 12 12 11 11 11 11 11 10 8 8 8 8 9 10 11 11 10 9 9 8 7 6 7 7 12 14 16 16 16 16 11 5 5 4 4 3 4 4 4 5 5 5 5 4 4 4 5 5 5 4 4 3 4 4 4 5 4 4 3 3 2 3 3 1 1 3 6 7 9 9 8 8 8 6 7 7 7 9
10 10 10 10 12 11 10 9 9 9 10 10 10 10 9 10 11 9 9 7 6 5 5 5 7 8 7 7 7 7 7 14 16 16 17 17 18 7 6 5 5 4 5 5 4 5 5 5 5 5 5 5 7 13 10 6 5 5 6 6 6 6 5 7 9 7 5 4 3 1 1 5 8 9 10 9 8 7 5 3 5 5 7 7 8
11 11 12 12 12 12 13 14 13 13 12 12 11 11 11 11 9 7 8 8 9 8 8 8 7 8 9 8 9 8 7 12 16 17 18 20 15 7 7 5 6 6 6 6 5 5 6 6 6 5 5 5 9 14 14 13 7 8 7 7 7 6 5 5 3 3 4 7 10 11 10 10 12 14 14 13 9 8 3 5 5 4 6 9 9
11 12 12 12 12 13 13 13 13 12 12 13 13 12 10 7 8 8 10 10 9 8 7 6 6 8 10 11 11 11 9 11 17 18 20 21 17 9 8 7 7 7 6 7 6 6 7 12 8 6 6 6 11 14 14 11 7 7 6 7 7 6 4 3 1 2 3 2 2 3 6 8 9 10 9 10 10 7 2 3 4 3 5 5 8
14 14 12 10 10 9 9 10 11 12 12 11 10 10 10 10 8 7 7 7 8 7 7 7 8 8 9 11 9 11 9 9 16 18 20 20 16 7 8 7 8 8 7 7 5 5 6 9 13 10 8 9 15 14 15 11 6 6 7 7 7 6 6 4 4 3 1 1 2 2 5 5 3 3 4 8 8 5 2 3 3 3 4 5 8
10 9 9 10 9 10 10 11 10 11 10 9 8 8 7 7 8 8 7 6 7 7 7 8 11 10 9 9 9 10 9 7 9 18 19 20 20 8 6 8 10 10 8 7 6 6 7 6 10 15 16 16 16 16 15 15 9 7 7 7 7 7 5 5 4 4 3 2 2 2 4 5 5 4 3 3 3 2 3 3 3 3 4 5 6
10 10 9 9 10 10 9 10 11 10 10 10 9 9 8 9 8 9 9 7 7 8 9 9 10 9 8 8 7 8 8 8 8 16 18 19 21 14 9 10 9 7 7 7 7 8 7 7 6 12 17 18 17 17 16 16 15 8 8 8 8 6 7 5 6 7 5 3 2 3 3 3 3 3 3 3 4 3 2 4 3 4 4 5 6
9 9 10 10 10 10 10 9 10 10 9 9 10 10 8 9 9 10 9 9 11 11 9 9 9 9 6 6 6 7 5 8 7 12 16 19 21 22 10 10 7 6 6 7 7 8 9 7 7 11 17 18 18 18 18 17 17 8 7 12 12 12 7 5 5 5 4 3 3 3 4 4 3 4 3 3 4 3 3 4 4 4 4 5 5
9 10 10 11 11 11 11 12 11 9 10 11 12 11 10 10 10 9 10 10 10 10 10 8 8 8 6 6 5 6 6 7 12 9 14 18 20 23 20 10 14 8 9 10 11 9 6 6 7 13 16 18 18 18 16 18 14 10 14 15 14 12 12 5 6 5 4 3 3 6 6 5 4 5 4 3 3 3 3 4 5 5 5 6 7
9 9 9 10 10 10 10 10 10 9 10 10 10 10 10 9 8 8 9 9 8 9 8 7 6 7 8 8 7 7 6 6 9 14 13 19 20 21 23 21 17 11 9 10 7 7 7 7 8 14 16 17 18 17 17 15 11 15 15 16 15 10 7 7 5 5 4 2 4 6 6 5 3 4 4 3 3 3 4 4 5 5 5 6 7
10 10 10 9 10 9 9 9 10 9 9 11 10 9 9 8 8 6 8 8 8 9 8 7 8 9 8 9 9 8 7 7 7 11 17 17 19 20 21 23 22 21 12 9 7 7 8 13 14 16 16 17 18 17 15 17 18 17 16 17 10 7 6 6 6 4 2 6 7 6 6 5 5 5 4 4 3 4 3 3 3 4 5 6 6
10 10 9 9 9 9 10 8 8 9 10 9 10 9 11 10 10 8 8 8 8 9 9 8 9 9 10 10 9 9 7 7 8 7 9 11 13 18 21 22 24 24 19 11 13 15 16 16 18 17 16 15 11 9 8 8 15 14 15 9 7 6 6 5 4 5 6 6 7 7 7 3 2 4 3 3 3 3 2 2 4 5 3 4 6
9 8 9 8 8 9 10 8 8 7 7 7 7 7 7 8 8 8 9 9 9 9 9 9 8 8 10 11 9 7 7 7 7 7 8 8 9 10 12 14 18 20 17 10 12 13 15 15 11 13 11 16 16 14 10 9 9 8 4 5 6 5 5 6 7 6 6 6 7 6 4 3 1 2 3 3 4 3 1 2 3 4 4 4 5
9 9 9 8 8 8 8 10 10 8 8 8 8 7 6 8 9 11 12 12 11 10 9 10 11 11 11 11 8 7 8 8 9 9 9 10 10 9 9 10 9 9 10 10 8 9 9 11 14 10 10 10 10 6 5 5 6 6 5 5 5 5 5 5 4 3 4 4 4 3 3 2 3 4 3 3 4 4 2 2 1 4 3 4 4
7 7 7 7 7 7 7 8 8 8 7 7 7 9 11 11 11 9 8 9 11 12 11 11 11 10 9 9 8 9 9 10 12 9 10 11 11 9 9 10 9 9 10 11 5 5 7 8 9 10 9 9 7 7 6 6 5 4 5 5 4 5 5 5 6 6 6 5 6 6 7 4 5 3 3 4 4 3 1 2 3 4 3 2 5
7 7 7 7 7 7 6 7 6 7 8 8 7 5 4 6 7 8 8 9 13 12 9 9 7 6 8 9 8 11 11 7 4 13 17 18 19 20 18 16 16 13 12 18 11 7 9 11 10 9 9 9 11 9 8 7 7 6 5 5 5 5 5 6 6 6 5 6 6 5 6 4 5 3 3 4 5 3 3 3 2 0 2 4 5
6 6 6 6 7 7 7 7 6 6 7 7 7 7 6 4 10 13 9 6 9 14 16 14 11 10 9 8 7 13 14 11 8 11 16 18 20 21 22 22 23 22 21 12 12 12 10 10 10 9 10 9 10 9 9 9 9 7 7 7 6 7 7 6 6 6 6 6 6 6 5 4 5 3 4 4 4 4 2 1 1 1 2 4 5
8 7 6 5 6 6 6 6 6 7 6 5 6 6 6 7 6 6 10 11 11 12 13 15 15 15 15 12 8 6 11 14 16 14 14 17 19 20 21 23 23 23 23 22 14 14 12 12 12 11 9 10 12 9 9 9 9 9 7 7 7 7 7 7 6 6 6 6 6 7 6 5 5 4 4 5 5 4 3 3 2 2 3 3 5
6 5 5 6 6 6 6 6 6 6 6 6 5 5 6 6 7 6 3 6 13 15 15 15 16 17 17 19 18 13 10 11 16 17 18 18 18 20 21 23 23 24 23 17 14 14 12 11 11 10 11 13 11 9 9 9 9 8 8 8 8 8 8 7 4 6 6 7 6 6 6 5 4 6 6 6 5 5 2 3 2 2 2 3 5
7 7 7 8 8 7 7 6 7 6 6 6 6 6 6 6 6 5 5 4 4 6 12 17 19 19 20 20 18 20 20 18 17 17 18 19 20 20 19 16 21 24 21 14 13 12 10 10 12 12 11 10 9 8 8 8 8 8 7 7 7 5 6 5 6 7 6 7 7 6 4 5 5 5 6 5 5 4 5 5 2 3 3 3 5
6 6 9 8 6 7 6 6 6 6 6 6 7 6 7 5 5 6 7 7 7 8 6 7 11 17 14 13 17 19 19 19 20 19 19 18 18 18 18 13 12 11 14 13 12 11 11 12 12 10 9 9 9 9 9 8 8 8 8 7 6 6 6 6 6 6 6 6 6 5 6 6 5 6 6 5 5 5 5 4 4 4 4 4 4
5 6 5 6 6 5 6 6 6 7 7 7 6 6 6 6 7 7 6 6 7 7 6 5 4 5 12 15 17 17 18 18 18 19 19 19 18 16 11 11 10 10 11 11 11 11 10 10 9 8 7 7 6 7 8 8 8 7 7 7 7 7 7 6 6 6 6 6 7 6 5 5 6 6 6 6 6 6 5 5 4 3 3 4 4
6 6 5 5 5 6 6 6 6 6 6 6 6 6 6 6 6 5 6 6 6 5 6 3 3 5 4 4 7 13 17 18 18 18 18 18 20 13 10 9 9 9 10 10 9 9 9 8 6 6 6 7 6 7 6 6 6 6 6 6 6 6 7 6 6 6 6 6 6 6 5 6 6 6 7 7 6 6 6 5 4 5 5 6 6
6 6 6 5 6 5 5 5 5 5 5 5 4 4 5 4 5 5 6 6 5 5 6 4 4 5 5 5 4 4 8 12 16 16 16 16 13 10 9 9 9 9 9 8 8 7 7 5 5 6 6 6 6 5 6 5 5 5 6 6 6 6 6 5 6 7 6 6 6 6 6 6 6 6 6 6 7 6 6 6 5 5 4 6 4
4 5 7 6 6 6 5 4 5 5 3 3 4 5 5 5 4 4 5 4 4 5 5 4 5 5 5 3 3 4 6 6 6 8 7 7 7 7 7 8 8 8 8 8 7 6 5 5 4 5 5 6 6 6 6 6 6 6 6 6 6 5 5 5 6 6 6 7 6 6 6 6 6 6 6 6 6 6 6 5 5 5 5 5 5
5 3 5 6 5 4 5 5 4 5 5 5 4 4 3 4 5 5 4 4 5 5 5 5 5 5 4 2 3 4 6 7 6 6 7 7 6 7 7 8 8 8 8 7 6 6 6 6 6 6 6 6 7 6 6 6 7 6 6 6 6 7 6 6 6 6 7 7 6 6 6 6 6 6 5 6 7 6 6 6 5 5 5 5 5
4 4 4 4 5 4 5 5 5 5 4 5 4 5 5 4 4 4 3 5 5 4 5 6 5 4 3 5 9 9 6 7 6 6 6 7 6 6 7 7 7 7 5 6 6 6 7 6 6 7 6 6 6 6 6 6 5 6 9 6 5 5 5 6 6 6 6 6 6 6 6 6 5 6 7 7 7 6 6 5 5 6 6 4 4
5 4 5 3 4 4 4 5 5 4 4 4 3 4 5 4 3 4 5 4 5 5 5 5 4 4 6 9 10 13 8 5 5 5 6 6 5 5 4 3 2 2 3 4 5 6 6 6 5 5 5 5 5 5 5 5 5 7 6 5 6 6 6 6 6 6 6 6 6 6 6 6 6 6 7 5 6 6 6 6 6 5 5 5 4
5 4 4 5 4 4 4 3 3 4 2 2 2 2 3 2 2 4 3 4 3 4 4 4 5 2 3 7 9 11 6 5 4 6 5 5 4 4 3 3 2 1 1 2 3 2 2 2 3 3 4 4 5 5 7 7 6 6 5 6 6 6 6 6 5 6 6 5 6 6 6 6 6 6 6 6 6 6 6 6 5 5 5 4 4
4 5 5 4 4 3 4 3 3 2 2 2 2 2 2 2 1 1 2 2 3 3 4 4 3 3 3 5 5 5 5 5 5 4 4 4 5 4 3 1 1 1 1 2 2 2 3 3 3 3 3 3 3 4 4 5 5 6 6 6 6 6 6 6 7 7 7 7 6 6 6 6 6 6 6 7 5 6 6 5 5 5 5 4 5
5 6 5 5 3 4 2 2 2 2 3 3 1 1 1 1 1 2 1 3 4 3 3 3 3 2 4 3 3 4 5 5 5 3 4 4 4 3 0 0 1 1 1 1 1 1 2 2 2 3 3 3 3 4 4 4 4 5 5 7 6 7 7 8 8 6 6 6 6 6 6 6 6 6 6 6 6 6 6 5 5 5 5 4 4
5 5 6 4 5 5 4 2 4 2 1 1 1 1 1 1 1 1 3 3 3 2 3 3 2 2 4 4 3 4 4 3 3 2 2 3 2 1 1 1 2 2 3 3 3 3 3 3 3 3 3 3 4 3 3 3 4 4 4 5 6 7 6 5 4 5 6 6 6 6 6 6 6 7 7 6 6 5 6 5 4 5 5 5 5
5 5 4 5 4 5 4 4 3 2 2 1 1 1 1 1 1 2 3 4 2 4 2 2 2 3 3 3 3 5 3 2 2 2 1 1 0 1 1 2 2 2 2 3 2 3 3 3 2 3 3 2 3 3 3 3 3 4 4 4 5 5 4 4 5 5 6 6 6 5 6 6 6 6 7 6 5 6 5 6 6 6 5 5 5
5 6 5 5 4 4 3 2 2 3 2 2 1 1 2 1 1 2 2 2 1 2 2 2 2 3 3 2 2 2 1 1 1 1 0 0 1 1 1 1 1 1 2 2 2 2 2 2 2 2 2 3 3 3 3 3 3 4 4 4 5 6 6 5 5 5 5 5 6 6 6 6 6 6 5 6 6 5 5 6 5 4 5 5 6
4 6 5 4 3 3 4 2 4 2 1 1 1 1 2 1 1 1 1 1 1 1 2 2 3 1 1 1 1 1 1 1 1 1 1 1 0 0 0 1 1 1 1 2 1 2 2 2 2 2 3 3 3 4 4 4 5 5 5 5 6 9 9 8 6 6 6 6 5 6 5 6 6 6 6 6 6 5 6 5 4 5 4 4 5
4 4 4 3 4 2 3 3 2 2 2 2 2 1 1 1 1 1 1 1 1 1 2 1 1 2 2 1 2 2 1 2 2 2 2 2 1 1 1 2 2 3 3 4 2 2 2 2 3 3 4 4 4 4 4 4 4 5 4 5 9 11 11 12 11 9 7 5 6 6 6 6 6 6 6 6 6 6 6 6 5 6 5 5 6
4 4 3 3 2 2 2 3 2 1 2 1 2 1 1 1 1 1 1 1 2 3 2 2 2 1 1 2 3 2 2 3 3 3 3 3 2 2 2 2 3 2 3 4 3 2 3 3 3 4 4 4 4 5 4 5 4 5 7 10 12 12 12 11 8 10 11 7 5 6 7 7 7 7 6 6 5 6 8 6 5 5 5 5 6
Wind_Direction
175 178 168 171 166 169 166 165 162 155 155 165 162 158 156 157 156 147 139 157 148 144 145 144 137 126 116 112 118 128 132 136 136 132 126 126 125 126 126 124 122 123 123 117 110 115 118 122 127 131 132 121 122 120 109 112 105 108 108 99 93 88 103 200 228 283 291 154 67 316 318 313 315 306 315 318 316 311 306 297 293 293 296 293 295
180 171 174 167 171 172 171 163 159 155 158 162 162 157 160 161 152 147 157 146 141 135 132 127 117 117 116 116 125 135 144 146 146 138 133 127 123 125 131 132 129 128 124 124 125 124 132 130 132 137 137 128 133 128 130 127 126 112 95 95 99 95 254 146 262 243 291 286 314 285 307 312 311 317 327 322 321 319 317 315 299 286 288 286 293
175 173 172 170 172 170 164 164 158 160 161 166 164 159 159 155 151 154 152 140 125 126 134 129 124 119 119 126 139 149 151 148 148 136 134 135 138 142 146 142 139 137 134 139 142 140 136 136 142 141 137 130 135 139 137 138 126 112 101 112 126 213 218 226 205 279 291 307 7 339 327 325 322 326 322 313 305 309 313 315 314 309 296 292 292
176 172 172 172 168 164 170 163 162 165 168 167 164 161 156 152 149 148 144 138 135 131 133 133 129 130 133 142 155 155 154 156 142 138 141 145 147 149 147 138 136 138 141 147 151 151 148 140 153 152 147 136 142 144 148 129 117 114 131 155 161 212 228 214 255 242 292 306 323 340 323 323 322 316 308 299 310 315 311 307 305 312 315 311 305
174 177 172 167 169 171 172 170 170 169 166 162 164 157 156 152 155 153 146 141 138 139 137 137 135 139 149 162 166 165 167 161 142 139 139 143 144 141 139 136 142 142 145 151 155 153 155 154 158 157 149 140 147 140 138 120 126 133 157 186 189 224 229 233 230 251 277 291 302 309 309 305 305 308 312 326 322 318 314 311 324 322 323 319 321
178 173 175 172 172 175 175 173 175 169 165 165 163 161 158 159 157 154 153 143 142 148 147 148 148 150 152 158 167 162 140 128 136 137 139 137 129 131 135 138 144 140 140 146 152 159 157 156 161 160 156 149 151 142 135 142 140 151 160 203 207 222 229 245 250 255 271 277 293 309 324 324 321 321 324 317 326 327 327 329 326 324 331 332 328
178 178 176 174 172 179 177 179 172 168 167 164 159 160 163 161 159 158 154 146 149 153 154 147 148 146 145 146 147 153 146 133 140 146 147 142 136 138 136 137 138 132 133 143 152 156 157 158 162 162 154 146 142 149 149 151 152 164 178 187 220 205 229 233 251 275 284 289 285 284 306 309 315 319 329 325 331 339 328 327 329 332 331 334 326
178 178 176 175 178 181 178 171 170 168 160 157 161 160 156 157 156 149 147 151 158 161 158 153 145 141 145 153 137 141 127 136 147 152 150 148 146 145 148 146 134 134 135 141 153 161 163 167 162 159 149 148 148 156 152 156 147 159 195 171 209 194 210 224 284 281 275 277 291 310 314 313 310 307 318 340 332 327 342 334 326 328 328 330 332
179 180 179 181 182 174 163 166 167 160 155 151 154 161 161 158 152 152 155 153 151 150 141 137 135 130 118 110 130 133 154 169 163 160 153 156 158 155 154 149 151 145 144 151 163 163 168 167 161 154 154 161 163 163 167 165 147 167 206 170 200 187 196 200 226 253 266 277 294 292 296 301 321 333 333 340 341 333 333 333 319 320 320 316 324
179 182 186 182 168 162 161 158 157 154 153 160 165 162 162 159 157 158 157 147 137 135 133 134 136 144 149 153 147 160 174 159 161 157 159 152 145 138 136 150 158 153 157 163 166 166 174 166 172 165 165 167 168 169 172 184 182 168 182 178 189 176 181 190 239 243 254 280 293 303 305 313 333 332 325 323 326 328 326 327 324 325 324 317 306
185 183 183 174 162 156 158 164 162 167 168 163 161 162 162 161 160 155 145 140 140 140 142 146 150 155 161 161 166 170 169 174 172 166 168 165 144 144 162 169 163 163 173 171 167 166 173 172 178 178 167 151 147 163 176 184 200 212 210 202 188 175 182 221 232 232 233 262 287 293 304 323 330 324 317 320 325 327 323 322 321 325 329 331 323
186 186 180 169 164 164 167 166 168 169 165 167 161 158 155 156 157 154 149 147 149 145 153 161 158 158 157 164 170 178 173 179 177 177 175 171 165 156 163 173 169 169 171 163 161 164 171 165 174 168 131 130 128 139 185 189 201 211 213 215 222 222 216 202 215 231 258 285 286 307 333 323 324 319 317 325 320 319 320 320 319 323 322 322 315
182 184 180 172 167 165 165 165 165 165 165 156 151 149 155 160 160 160 166 159 146 157 166 158 163 160 164 171 179 182 179 183 186 186 183 178 174 170 182 182 169 170 175 169 164 169 168 166 180 178 171 175 162 155 164 216 232 216 212 216 225 231 236 255 274 281 285 284 296 316 326 325 315 312 320 317 316 311 317 317 317 314 318 312 305
179 180 173 172 166 163 160 159 163 165 159 155 156 162 167 173 172 165 152 150 160 158 156 166 164 172 176 178 182 182 183 191 192 192 188 186 183 174 182 179 175 175 168 169 165 177 182 174 182 187 179 168 145 159 175 199 216 249 263 272 263 271 266 267 272 282 285 281 292 303 315 11 299 306 306 310 313 311 316 310 315 319 315 299 300
173 173 173 167 162 163 164 167 169 164 162 162 164 168 170 165 163 164 164 166 166 172 172 174 180 176 177 176 178 189 189 194 199 196 194 191 188 167 172 171 169 168 158 154 174 186 190 186 189 191 182 174 180 183 187 205 207 215 225 242 242 239 234 234 245 247 253 274 303 315 306 310 285 284 296 309 308 309 305 306 333 318 304 300 292
174 165 163 164 170 173 166 163 160 159 162 165 166 166 165 170 171 170 167 168 168 155 163 169 171 175 178 179 182 198 198 196 203 202 199 198 190 171 174 179 172 167 175 178 187 196 192 190 193 192 185 189 207 205 198 193 197 208 221 236 235 234 228 229 230 237 240 262 291 250 209 274 290 301 309 311 313 307 307 345 341 340 325 311 307
174 170 176 176 171 168 169 167 168 168 168 167 170 168 169 177 177 163 164 169 170 178 179 181 179 177 182 187 193 204 200 201 204 206 205 202 192 172 179 169 180 181 191 190 193 201 201 194 195 186 192 203 213 214 209 203 198 208 218 225 229 220 214 219 240 242 272 297 300 298 298 302 306 309 312 314 310 312 15 345 317 316 323 318 311
180 179 180 179 178 174 173 168 165 166 167 171 174 180 179 169 167 171 173 168 179 185 177 176 183 190 191 195 198 200 204 200 205 210 210 208 203 183 183 179 181 185 189 189 192 202 210 208 201 194 203 212 219 217 214 213 209 208 218 230 225 199 200 178 124 280 295 322 329 320 317 315 320 322 319 312 310 317 38 302 274 315 304 309 303
184 183 180 173 170 160 160 167 171 171 177 179 174 169 168 170 164 163 177 176 182 173 182 188 195 202 205 204 197 203 206 198 206 213 213 213 209 183 187 182 188 196 188 195 191 191 216 222 217 210 205 217 223 221 217 214 202 214 227 235 218 206 207 179 186 211 256 333 307 355 319 331 328 297 290 308 314 328 318 261 274 292 288 296 306
173 167 166 165 161 163 170 169 169 168 168 160 159 164 154 155 168 174 180 180 182 183 189 198 203 208 204 203 204 206 205 201 202 213 216 215 211 182 194 187 207 202 191 195 195 205 209 215 225 221 218 219 222 222 221 219 210 216 218 217 211 221 190 180 185 166 188 186 251 292 283 298 303 303 297 291 298 281 275 273 267 261 263 278 290
159 160 155 157 161 163 164 168 167 168 166 166 164 165 170 174 169 175 182 187 190 195 198 204 211 215 203 207 204 212 205 200 204 212 220 216 215 194 201 211 216 198 196 195 203 211 217 213 210 222 222 223 221 223 224 226 230 218 202 205 208 206 162 158 193 173 151 182 226 257 268 285 283 279 275 271 270 267 268 287 268 257 256 259 281
143 149 154 159 162 163 166 168 168 166 163 159 166 177 179 176 181 183 186 190 197 201 200 203 210 216 204 199 207 213 206 200 198 215 220 221 218 211 198 215 198 188 198 213 212 218 217 210 210 215 221 225 226 225 228 230 233 226 197 216 214 218 159 162 140 126 153 181 216 258 259 262 272 273 259 250 248 255 255 258 270 266 259 246 249
148 154 158 162 167 169 171 171 172 170 171 174 175 180 179 182 185 183 186 191 198 203 204 203 207 216 213 213 211 213 210 215 205 207 221 224 223 222 215 201 203 191 198 218 217 218 208 209 215 217 221 224 226 227 227 230 231 227 210 217 217 195 144 144 143 142 171 201 226 258 265 253 257 265 268 256 246 237 248 263 264 265 265 256 258
153 157 163 168 167 171 173 174 174 172 172 173 178 178 178 181 176 181 182 185 191 202 207 197 204 214 219 223 217 217 214 205 220 212 214 224 228 225 225 217 205 199 201 224 214 204 204 210 208 216 223 222 224 226 228 227 227 232 215 210 217 149 127 144 146 163 181 232 257 265 262 251 222 253 251 244 248 254 266 270 267 265 267 273 269
157 164 166 167 169 168 167 171 174 173 172 171 174 177 172 166 174 176 173 185 192 203 208 192 208 216 218 227 226 217 209 208 215 223 219 222 228 230 228 226 218 211 210 219 202 205 209 214 214 218 222 222 224 227 228 230 229 232 216 212 174 124 150 158 164 153 196 245 245 252 258 247 228 237 254 271 276 278 277 281 275 265 268 274 272
160 163 162 162 166 160 163 167 169 171 170 177 180 180 176 178 182 178 182 194 197 203 207 198 211 213 223 230 230 221 202 205 215 214 228 230 232 233 232 230 228 222 218 209 204 208 216 219 219 220 222 223 224 223 221 220 235 220 206 193 127 164 152 154 149 170 224 236 241 242 247 242 239 248 262 270 273 275 282 291 316 299 300 300 307
157 156 163 160 155 161 162 167 166 166 171 172 177 173 172 175 177 177 186 193 200 205 207 204 210 214 225 231 229 219 213 213 210 206 207 218 227 228 234 238 236 233 231 210 203 210 217 216 210 216 217 221 223 223 214 206 212 197 162 125 162 152 176 170 185 193 215 227 238 246 247 247 272 288 274 277 282 274 233 259 278 283 312 311 307
159 165 163 160 161 165 168 163 164 169 177 174 174 176 176 178 183 191 191 195 196 206 203 208 211 214 222 226 223 222 228 220 216 206 203 207 216 217 224 229 228 226 227 220 201 202 199 209 215 218 218 220 221 205 173 163 172 167 170 163 157 169 173 181 160 174 205 207 233 247 267 239 261 256 268 276 269 275 260 251 244 292 300 320 319
151 153 153 152 160 165 165 167 174 170 174 184 197 188 181 186 197 211 215 198 197 196 200 212 216 219 216 217 209 227 232 230 230 203 208 202 206 206 217 221 221 226 226 220 193 186 194 203 207 210 206 207 191 185 182 171 185 186 175 173 159 158 165 160 189 203 209 194 228 227 242 231 252 250 251 277 272 268 240 263 259 233 290 264 268
146 156 158 160 156 161 163 166 169 170 174 185 187 230 254 212 209 202 213 206 216 223 208 214 212 200 215 227 202 215 229 239 188 198 208 210 214 215 218 217 217 219 221 223 209 207 209 198 210 206 204 198 189 193 192 193 194 194 207 196 182 175 185 203 204 213 188 203 218 221 233 222 251 248 256 259 280 265 254 258 268 329 300 292 293
149 148 160 169 170 170 164 166 173 174 176 178 187 195 219 245 228 228 225 207 218 226 232 236 228 202 198 234 231 237 251 253 228 207 208 211 214 219 221 221 219 219 215 210 223 220 217 214 217 205 208 200 207 206 195 199 201 198 201 196 194 197 202 198 212 199 199 206 213 215 220 210 236 246 252 259 263 276 250 227 214 254 259 280 284
164 174 169 161 156 164 163 161 162 171 177 174 181 187 196 218 261 246 238 236 228 227 233 239 241 242 230 221 212 240 245 245 244 240 228 219 218 220 224 225 223 218 215 206 217 225 214 217 219 212 200 210 217 205 204 204 204 201 197 193 207 199 201 210 203 183 198 202 212 215 212 215 222 230 238 249 255 250 256 273 252 253 265 259 261
141 143 150 146 152 151 158 162 172 171 175 172 178 176 187 207 221 252 279 244 240 241 240 238 240 241 243 245 241 228 215 221 236 240 239 235 230 230 229 229 226 223 215 213 218 224 220 217 218 214 210 218 214 206 208 205 203 201 197 199 203 195 204 209 175 174 194 206 197 211 208 211 214 222 233 240 238 246 251 259 259 250 254 279 279
150 156 163 165 158 169 168 172 167 178 169 170 173 178 199 194 215 203 227 288 303 268 249 243 242 243 245 245 247 251 250 243 235 237 242 244 245 244 242 242 239 230 219 217 218 225 219 216 218 217 215 215 213 202 204 203 198 199 196 202 201 181 167 127 168 189 192 205 201 206 204 212 210 217 237 238 242 239 244 249 247 262 270 259 278
137 147 153 154 163 167 167 161 161 159 164 174 179 184 194 195 187 197 207 216 228 235 238 241 241 238 241 245 247 249 250 251 252 249 242 240 244 247 247 245 236 232 226 221 218 221 217 219 221 218 208 208 206 196 204 197 195 197 199 199 192 181 152 166 187 190 191 197 201 210 209 210 217 217 223 232 238 241 241 241 237 231 244 268 274
136 138 149 150 146 149 161 164 166 171 176 184 182 185 178 177 191 208 211 219 226 240 254 231 238 270 261 254 249 248 250 251 251 251 250 244 239 237 239 234 230 224 223 226 220 222 221 226 222 219 206 206 191 197 201 197 197 196 197 192 190 186 180 180 189 192 202 195 207 207 205 214 214 218 221 230 230 239 244 243 244 243 242 254 256
146 148 149 158 156 154 159 162 171 175 174 169 171 178 183 192 201 197 205 217 232 245 250 261 305 291 284 286 281 265 260 254 251 251 250 248 239 232 233 234 231 227 223 226 226 226 224 227 212 208 197 200 197 196 191 200 192 193 188 186 181 171 181 189 189 185 187 197 206 204 204 215 212 212 203 223 236 235 238 238 239 245 249 257 267
160 162 164 161 153 148 148 164 172 166 162 162 170 170 176 188 194 201 208 225 233 238 253 258 238 247 254 261 261 254 268 269 268 261 252 247 240 225 227 230 228 224 228 224 226 230 234 216 182 193 190 188 191 177 183 194 186 183 186 179 178 190 181 182 193 182 190 194 201 201 204 215 213 212 207 217 232 238 239 234 230 245 258 263 258
155 162 158 151 153 154 152 142 148 151 157 156 164 169 184 186 194 205 222 235 239 246 254 255 247 250 253 250 264 277 273 257 240 245 246 241 232 224 224 230 228 229 223 221 217 205 192 190 184 180 177 177 176 177 177 181 174 179 178 172 172 160 188 178 185 190 187 201 206 197 197 211 210 205 205 212 235 231 237 235 236 230 246 256 249
139 141 144 146 135 139 139 148 148 150 163 155 177 176 178 187 200 207 214 212 237 242 247 250 256 252 251 243 242 249 245 247 241 242 247 246 236 231 225 228 229 225 222 218 204 190 193 192 183 183 180 182 180 177 180 175 176 176 161 161 167 180 198 198 197 190 205 199 200 195 197 210 211 201 206 218 229 227 226 232 231 230 230 243 252
127 127 126 131 139 125 120 130 149 165 164 171 170 174 194 199 201 203 202 221 236 242 243 243 250 249 233 238 249 238 227 241 247 249 248 247 250 241 235 233 229 228 213 204 200 198 203 196 185 188 184 178 176 175 171 172 160 151 139 165 175 193 191 198 200 205 202 194 197 199 208 209 200 188 213 225 226 226 228 230 235 235 240 246 257
121 123 119 120 123 126 137 148 159 149 148 156 158 180 191 197 197 196 213 225 232 238 252 259 256 254 257 260 257 258 256 244 240 250 263 267 265 264 266 274 305 261 216 209 197 198 197 197 184 172 171 163 163 166 153 156 167 159 171 179 188 193 196 203 205 205 197 199 198 203 209 204 202 207 222 225 219 224 230 231 234 237 238 244 251
119 121 128 124 127 141 153 160 137 130 134 154 187 182 182 186 197 210 222 230 237 243 258 268 272 266 261 264 269 270 268 267 260 250 243 251 265 279 258 235 229 346 9 29 28 43 89 114 121 134 155 167 167 169 176 177 177 177 175 188 191 194 203 209 203 205 196 195 204 210 206 209 209 208 214 224 226 221 225 229 233 232 240 247 250
115 113 108 106 110 100 99 115 119 132 149 156 147 155 174 175 194 202 219 240 246 253 251 261 266 270 265 277 284 284 279 272 271 268 254 242 238 240 243 143 68 58 32 36 35 48 81 115 130 127 117 134 151 161 171 176 169 178 182 182 191 197 204 209 209 205 197 198 205 206 207 203 210 210 219 222 215 223 233 229 233 239 241 242 241
113 112 114 104 93 100 86 80 104 108 106 100 96 126 133 159 196 218 211 233 250 252 251 252 262 258 261 264 259 256 264 267 265 265 261 252 251 257 263 79 91 104 112 138 83 93 111 136 150 158 171 159 152 164 169 166 174 181 181 179 184 200 207 209 215 205 183 188 198 199 200 198 207 209 216 221 215 219 229 228 226 232 238 241 236
111 113 106 108 99 90 90 79 85 99 116 130 155 160 199 164 195 196 220 232 236 241 255 260 255 253 245 247 251 254 262 282 288 287 285 295 289 276 130 138 129 146 140 146 140 154 167 165 174 173 185 170 144 154 178 177 185 191 184 194 197 208 210 205 182 171 185 192 195 195 197 198 208 209 216 213 217 215 225 236 224 224 229 243 242
100 99 103 104 110 103 104 111 103 102 111 117 129 159 191 216 197 216 219 227 230 241 247 256 255 258 257 247 245 252 257 265 273 286 293 331 35 92 75 89 103 104 97 117 144 161 163 152 147 152 178 185 167 177 188 190 188 199 203 209 219 221 222 204 188 192 192 192 189 180 191 195 211 213 219 213 213 218 224 228 224 232 230 234 242
97 96 101 109 108 110 108 113 116 118 116 135 143 166 190 178 204 209 229 248 252 258 260 263 255 252 250 262 254 245 266 273 297 310 343 23 41 49 75 85 109 121 114 131 137 112 100 134 165 191 192 203 196 200 197 196 198 205 213 217 217 221 211 198 203 199 198 182 180 190 189 200 213 212 211 209 218 213 220 235 231 234 232 235 241
101 107 108 106 107 121 134 136 140 152 167 161 163 180 174 190 208 222 229 240 248 256 240 250 264 260 245 244 234 248 276 291 272 285 279 264 185 126 122 136 126 137 128 237 131 148 178 202 203 208 215 218 220 213 213 208 217 214 218 218 220 222 216 200 201 206 186 181 187 185 192 200 207 214 211 212 217 214 223 236 232 237 242 242 242
98 102 107 108 110 125 123 127 139 152 140 152 159 184 198 171 221 235 237 261 283 263 264 244 226 231 219 237 225 233 221 232 248 249 259 263 250 184 167 178 185 171 151 202 227 202 210 213 217 223 223 226 226 227 222 222 226 224 224 224 230 228 225 217 212 199 183 192 186 190 190 203 203 209 212 213 211 212 220 227 227 229 234 239 242
100 96 96 105 116 119 117 119 123 134 154 157 166 173 189 204 214 216 205 226 233 244 237 228 227 234 236 223 213 221 233 239 239 246 252 255 249 218 207 206 218 219 221 189 228 216 214 210 217 221 221 226 227 231 229 229 227 228 230 234 236 234 227 219 213 212 202 185 184 185 191 198 203 207 212 210 206 210 222 225 225 226 232 234 242